Seattle, WA
on Wednesday, December 26, 2012

Wednesday
Previous Day Next Day
Daily Summary
 ActualAverageRecord
Temperature
Mean Temperature °F 40°F  
Max Temperature 44°F 45°F 62°F (1980)
Min Temperature 38°F 36°F 22°F (1948)
Degree Days
Heating Degree Days 24 25  
Month to date heating degree days 594 635  
Since 1 July heating degree days 1621 1818  
Cooling Degree Days 0 0  
Month to date cooling degree days 0 0  
Year to date cooling degree days 177 189  
Moisture
Dew Point 36°F   
Average Humidity 76    
Maximum Humidity 86    
Minimum Humidity 65    
Precipitation
Precipitation 0.18 in 0.17 in 2.14 in (1974)
Month to date precipitation 6.63 4.54  
Year to date precipitation 48.04 36.68  
Snow
Snow 0.00 in in 8.80 in (1974)
Month to date snowfall 0.6  
Since 1 July snowfall 0.6  
Snow Depth 0.00 in   
Wind
Wind Speed 11 mph   
Max Wind Speed 21 mph   
Max Gust Speed 29 mph   
Visibility 10 miles   
Events Rain   

Key: T is trace of precipitation, MM is missing value
Source: NWS Daily Summary
Time(PST)TemperatureDew PointHumidity Pressure Visibility Wind DirectionWind SpeedGust SpeedPrecipitationEvents Conditions
12:53 AM 41.0°F 30.0°F 65% 29.72 in 10.0 miles Calm Calm - 0.00 in   Overcast
1:53 AM 41.0°F 30.0°F 65% 29.73 in 10.0 miles ESE 4.6 mph - N/A   Overcast
2:53 AM 39.9°F 30.0°F 68% 29.73 in 10.0 miles ESE 6.9 mph - 0.00 in   Overcast
3:53 AM 37.4°F 33.8°F 87% 29.72 in 9.0 miles SE 3.5 mph - N/A Rain Light Rain
4:05 AM 39.2°F 33.8°F 81% 29.72 in 9.0 miles SE 5.8 mph - 0.01 in Rain Light Rain
4:53 AM 39.0°F 33.1°F 79% 29.75 in 9.0 miles ESE 11.5 mph - 0.08 in Rain Rain
5:06 AM 37.4°F 33.8°F 87% 29.72 in 10.0 miles ESE 9.2 mph - 0.01 in Rain Light Rain
5:53 AM 37.9°F 34.0°F 86% 29.75 in 10.0 miles East 13.8 mph - 0.02 in Rain Light Rain
6:53 AM 39.0°F 33.1°F 79% 29.76 in 10.0 miles ESE 15.0 mph - 0.00 in   Overcast
7:53 AM 39.0°F 34.0°F 82% 29.77 in 10.0 miles SE 9.2 mph - N/A   Overcast
8:42 AM 39.2°F 33.8°F 81% 29.75 in 10.0 miles ESE 11.5 mph - N/A   Mostly Cloudy
8:53 AM 39.0°F 34.0°F 82% 29.79 in 10.0 miles ESE 12.7 mph - N/A   Mostly Cloudy
9:53 AM 39.9°F 35.1°F 83% 29.81 in 10.0 miles SE 10.4 mph - N/A   Mostly Cloudy
10:29 AM 41.0°F 35.6°F 81% 29.79 in 10.0 miles SSE 6.9 mph - N/A   Overcast
10:53 AM 41.0°F 37.0°F 86% 29.81 in 10.0 miles SSE 8.1 mph - N/A   Overcast
11:53 AM 42.1°F 37.9°F 85% 29.81 in 7.0 miles SSE 6.9 mph - 0.00 in Rain Light Rain
12:42 PM 42.8°F 39.2°F 87% 29.78 in 10.0 miles SSE 5.8 mph - 0.00 in   Overcast
12:53 PM 44.1°F 39.0°F 82% 29.81 in 10.0 miles South 5.8 mph - 0.00 in   Overcast
1:45 PM 44.6°F 39.2°F 81% 29.78 in 10.0 miles South 10.4 mph - 0.01 in Rain Light Rain
1:53 PM 44.1°F 39.9°F 85% 29.81 in 10.0 miles South 10.4 mph - 0.01 in Rain Light Rain
2:53 PM 44.1°F 39.0°F 82% 29.82 in 10.0 miles South 11.5 mph - 0.02 in Rain Light Rain
3:53 PM 43.0°F 37.9°F 82% 29.83 in 10.0 miles South 11.5 mph - 0.00 in Rain Light Rain
4:53 PM 43.0°F 37.9°F 82% 29.84 in 10.0 miles South 13.8 mph - 0.01 in Rain Light Rain
5:53 PM 42.1°F 37.9°F 85% 29.85 in 10.0 miles South 11.5 mph 21.9 mph 0.01 in   Overcast
6:53 PM 42.1°F 37.9°F 85% 29.85 in 10.0 miles South 15.0 mph - 0.00 in Rain Light Rain
7:49 PM 42.8°F 37.4°F 81% 29.83 in 10.0 miles South 18.4 mph - 0.00 in   Overcast
7:53 PM 43.0°F 37.0°F 80% 29.86 in 10.0 miles South 18.4 mph - 0.00 in Rain Light Rain
8:53 PM 42.1°F 37.9°F 85% 29.88 in 10.0 miles South 18.4 mph - 0.00 in   Overcast
9:45 PM 42.8°F 37.4°F 81% 29.86 in 10.0 miles South 16.1 mph 27.6 mph N/A   Overcast
9:53 PM 42.1°F 37.0°F 82% 29.90 in 10.0 miles South 15.0 mph 28.8 mph N/A   Overcast
10:08 PM 42.8°F 37.4°F 81% 29.87 in 10.0 miles South 13.8 mph 27.6 mph N/A   Overcast
10:53 PM 42.1°F 37.0°F 82% 29.92 in 10.0 miles South 13.8 mph 27.6 mph N/A   Overcast
11:53 PM 42.1°F 37.9°F 85% 29.93 in 10.0 miles South 15.0 mph 20.7 mph 0.01 in Rain Light Rain
Moon Phase
Dec. 26 Dec. 28 Jan. 04 Jan. 11 Jan. 18
Sunrise:07:56 AM (PST) Moon Rise:03:24 PM (PST)12/26
Sunset:04:24 PM (PST) Moon Set:06:22 AM (PST)12/26

Copyright © 2014 The Weather Underground, Inc.